Time,TemperatureF,DewpointF,PressureIn,WindDirection,WindDirectionDegrees,WindSpeedMPH,WindSpeedGustMPH,Humidity,HourlyPrecipIn,Conditions,Clouds,dailyrainin,SoftwareType,DateUTC
2013-02-02 00:02:00,0.0,-2.0,-100.00,North,0,3.0,6.0,86,0.00,,,0.00,,2013-02-02 06:02:00,
2013-02-02 00:12:00,0.0,-2.0,-100.00,North,10,4.0,6.0,86,0.00,,,0.00,,2013-02-02 06:12:00,
2013-02-02 00:21:00,0.0,-2.0,-100.00,NNE,15,3.0,6.0,86,0.00,,,0.00,,2013-02-02 06:21:00,
2013-02-02 00:31:00,0.0,-2.0,-100.00,North,5,3.0,6.0,86,0.00,,,0.00,,2013-02-02 06:31:00,
2013-02-02 00:41:00,0.0,-2.0,-100.00,NNE,25,3.0,6.0,86,0.00,,,0.00,,2013-02-02 06:41:00,
2013-02-02 00:51:00,0.0,-4.0,-100.00,North,5,4.0,7.0,85,0.00,,,0.00,,2013-02-02 06:51:00,
2013-02-02 01:02:00,0.0,-4.0,-100.00,North,0,4.0,7.0,85,0.00,,,0.00,,2013-02-02 07:02:00,
2013-02-02 01:11:00,0.0,-4.0,-100.00,North,0,6.0,7.0,85,0.00,,,0.00,,2013-02-02 07:11:00,
2013-02-02 01:21:00,0.0,-4.0,-100.00,North,10,3.0,6.0,85,0.00,,,0.00,,2013-02-02 07:21:00,
2013-02-02 01:31:00,0.0,-4.0,-100.00,NNE,15,4.0,6.0,85,0.00,,,0.00,,2013-02-02 07:31:00,
2013-02-02 01:41:00,0.0,-4.0,-100.00,North,0,4.0,6.0,85,0.00,,,0.00,,2013-02-02 07:41:00,
2013-02-02 01:51:00,0.0,-4.0,-100.00,North,0,6.0,7.0,85,0.00,,,0.00,,2013-02-02 07:51:00,
2013-02-02 02:01:00,0.0,-4.0,-100.00,North,0,6.0,8.0,85,0.00,,,0.00,,2013-02-02 08:01:00,
2013-02-02 02:11:00,0.0,-4.0,-100.00,North,0,6.0,8.0,85,0.00,,,0.00,,2013-02-02 08:11:00,
2013-02-02 02:21:00,0.0,-4.0,-100.00,North,0,4.0,8.0,85,0.00,,,0.00,,2013-02-02 08:21:00,
2013-02-02 02:31:00,0.0,-4.0,-100.00,North,350,4.0,7.0,85,0.00,,,0.00,,2013-02-02 08:31:00,
2013-02-02 02:41:00,0.0,-4.0,-100.00,North,350,6.0,7.0,85,0.00,,,0.00,,2013-02-02 08:41:00,
2013-02-02 02:52:00,0.0,-4.0,-100.00,NNW,345,6.0,7.0,85,0.00,,,0.00,,2013-02-02 08:52:00,
2013-02-02 03:01:00,0.0,-4.0,-100.00,NNW,335,6.0,7.0,85,0.00,,,0.00,,2013-02-02 09:01:00,
2013-02-02 03:11:00,0.0,-4.0,-100.00,North,350,7.0,9.0,85,0.00,,,0.00,,2013-02-02 09:11:00,
2013-02-02 03:22:00,0.0,-4.0,-100.00,NNW,345,7.0,9.0,84,0.00,,,0.00,,2013-02-02 09:22:00,
2013-02-02 03:31:00,0.0,-4.0,-100.00,NNW,330,6.0,9.0,84,0.00,,,0.00,,2013-02-02 09:31:00,
2013-02-02 03:41:00,0.0,-4.0,-100.00,NNW,335,6.0,9.0,84,0.00,,,0.00,,2013-02-02 09:41:00,
2013-02-02 03:52:00,0.0,-4.0,-100.00,NNW,345,6.0,9.0,84,0.00,,,0.00,,2013-02-02 09:52:00,
2013-02-02 04:01:00,1.0,-4.0,-100.00,NNW,335,6.0,9.0,84,0.00,,,0.00,,2013-02-02 10:01:00,
2013-02-02 04:11:00,1.0,-4.0,-100.00,NNW,345,6.0,9.0,84,0.00,,,0.00,,2013-02-02 10:11:00,
2013-02-02 04:21:00,1.0,-4.0,-100.00,NNW,345,6.0,9.0,84,0.00,,,0.00,,2013-02-02 10:21:00,
2013-02-02 04:31:00,1.0,-4.0,-100.00,NNW,345,6.0,9.0,84,0.00,,,0.00,,2013-02-02 10:31:00,
2013-02-02 04:41:00,1.0,-4.0,-100.00,NNW,340,6.0,10.0,84,0.00,,,0.00,,2013-02-02 10:41:00,
2013-02-02 04:51:00,1.0,-4.0,-100.00,NNW,345,6.0,9.0,84,0.00,,,0.00,,2013-02-02 10:51:00,
2013-02-02 05:01:00,1.0,-4.0,-100.00,NNW,340,6.0,9.0,83,0.00,,,0.00,,2013-02-02 11:01:00,
2013-02-02 05:11:00,1.0,-4.0,-100.00,NNW,345,7.0,9.0,83,0.00,,,0.00,,2013-02-02 11:11:00,
2013-02-02 05:21:00,1.0,-4.0,-100.00,NNW,345,6.0,9.0,83,0.00,,,0.00,,2013-02-02 11:21:00,
2013-02-02 05:32:00,1.0,-4.0,-100.00,NNW,345,6.0,8.0,83,0.00,,,0.00,,2013-02-02 11:32:00,
2013-02-02 05:42:00,1.0,-4.0,-100.00,North,0,6.0,9.0,83,0.00,,,0.00,,2013-02-02 11:42:00,
2013-02-02 05:52:00,1.0,-4.0,-100.00,NNW,345,7.0,9.0,83,0.00,,,0.00,,2013-02-02 11:52:00,
2013-02-02 06:01:00,0.0,-4.0,-100.00,NNW,345,6.0,9.0,83,0.00,,,0.00,,2013-02-02 12:01:00,
2013-02-02 06:11:00,0.0,-4.0,-100.00,NNW,345,6.0,8.0,83,0.00,,,0.00,,2013-02-02 12:11:00,
2013-02-02 06:22:00,0.0,-4.0,-100.00,North,0,4.0,7.0,83,0.00,,,0.00,,2013-02-02 12:22:00,
2013-02-02 06:32:00,0.0,-4.0,-100.00,NNW,335,6.0,8.0,82,0.00,,,0.00,,2013-02-02 12:32:00,
2013-02-02 06:42:00,0.0,-4.0,-100.00,NNW,345,6.0,7.0,82,0.00,,,0.00,,2013-02-02 12:42:00,
2013-02-02 06:52:00,0.0,-4.0,-100.00,NNW,335,4.0,7.0,82,0.00,,,0.00,,2013-02-02 12:52:00,
2013-02-02 07:02:00,0.0,-4.0,-100.00,NNW,340,5.0,7.0,82,0.00,,,0.00,,2013-02-02 13:02:00,
2013-02-02 07:11:00,0.0,-4.0,-100.00,NNW,345,5.0,6.0,82,0.00,,,0.00,,2013-02-02 13:11:00,
2013-02-02 07:21:00,-1.0,-6.0,-100.00,North,0,4.0,6.0,82,0.00,,,0.00,,2013-02-02 13:21:00,
2013-02-02 07:32:00,-1.0,-6.0,-100.00,North,0,4.0,4.0,82,0.00,,,0.00,,2013-02-02 13:32:00,
2013-02-02 07:42:00,-1.0,-6.0,-100.00,North,355,4.0,6.0,82,0.00,,,0.00,,2013-02-02 13:42:00,
2013-02-02 07:51:00,-1.0,-6.0,-100.00,North,350,3.0,6.0,83,0.00,,,0.00,,2013-02-02 13:51:00,
2013-02-02 08:02:00,-1.0,-6.0,-100.00,North,350,2.0,4.0,83,0.00,,,0.00,,2013-02-02 14:02:00,
2013-02-02 08:11:00,-1.0,-6.0,-100.00,North,0,1.0,3.0,83,0.00,,,0.00,,2013-02-02 14:11:00,
2013-02-02 08:22:00,-1.0,-6.0,-100.00,North,350,1.0,2.0,83,0.00,,,0.00,,2013-02-02 14:22:00,
2013-02-02 08:32:00,-2.0,-6.0,-100.00,NW,320,4.0,6.0,83,0.00,,,0.00,,2013-02-02 14:32:00,
2013-02-02 08:42:00,-2.0,-6.0,-100.00,NW,310,2.0,4.0,83,0.00,,,0.00,,2013-02-02 14:42:00,
2013-02-02 08:52:00,-2.0,-6.0,-100.00,NW,315,2.0,6.0,83,0.00,,,0.00,,2013-02-02 14:52:00,
2013-02-02 09:03:00,-1.0,-6.0,-100.00,NW,320,2.0,4.0,83,0.00,,,0.00,,2013-02-02 15:03:00,
2013-02-02 09:12:00,-1.0,-4.0,-100.00,NNW,335,2.0,4.0,83,0.00,,,0.00,,2013-02-02 15:12:00,
2013-02-02 09:22:00,1.0,-2.0,-100.00,WNW,295,1.0,2.0,83,0.00,,,0.00,,2013-02-02 15:22:00,
2013-02-02 09:32:00,1.0,-4.0,-100.00,WNW,300,2.0,3.0,82,0.00,,,0.00,,2013-02-02 15:32:00,
2013-02-02 09:42:00,1.0,-4.0,-100.00,NNW,335,2.0,5.0,81,0.00,,,0.00,,2013-02-02 15:42:00,
2013-02-02 09:52:00,2.0,-4.0,-100.00,NNW,340,3.0,6.0,80,0.00,,,0.00,,2013-02-02 15:52:00,
2013-02-02 10:03:00,2.0,-4.0,-100.00,North,0,2.0,6.0,78,0.00,,,0.00,,2013-02-02 16:03:00,
2013-02-02 10:11:00,3.0,-2.0,-100.00,North,10,2.0,4.0,77,0.00,,,0.00,,2013-02-02 16:11:00,
2013-02-02 10:22:00,3.0,-2.0,-100.00,NW,310,0.0,4.0,75,0.00,,,0.00,,2013-02-02 16:22:00,
2013-02-02 10:32:00,4.0,-2.0,-100.00,WNW,295,0.0,4.0,74,0.00,,,0.00,,2013-02-02 16:32:00,
2013-02-02 10:42:00,5.0,-2.0,-100.00,West,265,0.0,2.0,72,0.00,,,0.00,,2013-02-02 16:42:00,
2013-02-02 10:52:00,4.0,-2.0,-100.00,ESE,120,0.0,4.0,71,0.00,,,0.00,,2013-02-02 16:52:00,
2013-02-02 11:02:00,4.0,-4.0,-100.00,NNW,335,2.0,4.0,70,0.00,,,0.00,,2013-02-02 17:02:00,
2013-02-02 11:11:00,5.0,-4.0,-100.00,WNW,285,2.0,4.0,69,0.00,,,0.00,,2013-02-02 17:11:00,
2013-02-02 11:22:00,4.0,-4.0,-100.00,NW,315,2.0,5.0,68,0.00,,,0.00,,2013-02-02 17:22:00,
2013-02-02 11:32:00,6.0,-2.0,-100.00,West,270,1.0,5.0,68,0.00,,,0.00,,2013-02-02 17:32:00,
2013-02-02 11:41:00,7.0,-2.0,-100.00,WNW,290,1.0,2.0,66,0.00,,,0.00,,2013-02-02 17:41:00,
2013-02-02 11:52:00,7.0,-2.0,-100.00,West,280,1.0,2.0,65,0.00,,,0.00,,2013-02-02 17:52:00,
2013-02-02 12:02:00,6.0,-4.0,-100.00,WNW,290,2.0,2.0,64,0.00,,,0.00,,2013-02-02 18:02:00,
2013-02-02 12:12:00,7.0,-2.0,-100.00,West,280,1.0,2.0,64,0.00,,,0.00,,2013-02-02 18:12:00,
2013-02-02 12:22:00,8.0,-2.0,-100.00,WNW,290,1.0,2.0,62,0.00,,,0.00,,2013-02-02 18:22:00,
2013-02-02 12:32:00,10.0,0.0,-100.00,NW,305,0.0,2.0,61,0.00,,,0.00,,2013-02-02 18:32:00,
2013-02-02 12:42:00,9.0,-2.0,-100.00,SW,225,5.0,7.0,61,0.00,,,0.00,,2013-02-02 18:42:00,
2013-02-02 12:52:00,10.0,-2.0,-100.00,SW,215,4.0,6.0,59,0.00,,,0.00,,2013-02-02 18:52:00,
2013-02-02 13:02:00,10.0,-2.0,-100.00,SW,225,6.0,7.0,59,0.00,,,0.00,,2013-02-02 19:02:00,
2013-02-02 13:12:00,9.0,-2.0,-100.00,SW,220,7.0,8.0,59,0.00,,,0.00,,2013-02-02 19:12:00,
2013-02-02 13:21:00,10.0,-2.0,-100.00,SW,225,7.0,9.0,59,0.00,,,0.00,,2013-02-02 19:21:00,
2013-02-02 13:32:00,8.0,-2.0,-100.00,South,190,6.0,10.0,61,0.00,,,0.00,,2013-02-02 19:32:00,
2013-02-02 13:41:00,9.0,-2.0,-100.00,SSE,165,3.0,9.0,61,0.00,,,0.00,,2013-02-02 19:41:00,
2013-02-02 13:51:00,8.0,-2.0,-100.00,South,185,6.0,10.0,62,0.00,,,0.00,,2013-02-02 19:51:00,
2013-02-02 14:01:00,8.0,-2.0,-100.00,SSW,195,7.0,10.0,62,0.00,,,0.00,,2013-02-02 20:01:00,
2013-02-02 14:11:00,8.0,-2.0,-100.00,South,185,6.0,10.0,62,0.00,,,0.00,,2013-02-02 20:11:00,
2013-02-02 14:21:00,8.0,-2.0,-100.00,SSW,195,6.0,11.0,62,0.00,,,0.00,,2013-02-02 20:21:00,
2013-02-02 14:32:00,8.0,-2.0,-100.00,SSE,165,7.0,11.0,62,0.00,,,0.00,,2013-02-02 20:32:00,
2013-02-02 14:41:00,9.0,-2.0,-100.00,SW,215,6.0,11.0,63,0.00,,,0.00,,2013-02-02 20:41:00,
2013-02-02 14:52:00,8.0,-2.0,-100.00,South,175,7.0,10.0,62,0.00,,,0.00,,2013-02-02 20:52:00,
2013-02-02 15:02:00,7.0,-2.0,-100.00,South,180,9.0,12.0,63,0.00,,,0.00,,2013-02-02 21:02:00,
2013-02-02 15:11:00,8.0,-2.0,-100.00,South,185,8.0,12.0,64,0.00,,,0.00,,2013-02-02 21:11:00,
2013-02-02 15:21:00,9.0,-2.0,-100.00,SSW,195,7.0,10.0,63,0.00,,,0.00,,2013-02-02 21:21:00,
2013-02-02 15:32:00,10.0,0.0,-100.00,SW,215,4.0,10.0,63,0.00,,,0.00,,2013-02-02 21:32:00,
2013-02-02 15:42:00,8.0,-2.0,-100.00,SSW,205,7.0,9.0,63,0.00,,,0.00,,2013-02-02 21:42:00,
2013-02-02 15:51:00,8.0,-2.0,-100.00,South,180,9.0,12.0,64,0.00,,,0.00,,2013-02-02 21:51:00,
2013-02-02 16:02:00,7.0,-2.0,-100.00,South,185,7.0,12.0,65,0.00,,,0.00,,2013-02-02 22:02:00,
2013-02-02 16:11:00,7.0,-2.0,-100.00,South,175,6.0,9.0,65,0.00,,,0.00,,2013-02-02 22:11:00,
2013-02-02 16:21:00,8.0,-2.0,-100.00,South,180,6.0,7.0,65,0.00,,,0.00,,2013-02-02 22:21:00,
2013-02-02 16:32:00,7.0,-2.0,-100.00,SSE,165,6.0,8.0,66,0.00,,,0.00,,2013-02-02 22:32:00,
2013-02-02 16:42:00,7.0,-2.0,-100.00,SSE,165,5.0,7.0,67,0.00,,,0.00,,2013-02-02 22:42:00,
2013-02-02 16:52:00,7.0,-2.0,-100.00,SE,145,4.0,9.0,67,0.00,,,0.00,,2013-02-02 22:52:00,
2013-02-02 17:02:00,7.0,-2.0,-100.00,SE,135,6.0,8.0,68,0.00,,,0.00,,2013-02-02 23:02:00,
2013-02-02 17:11:00,7.0,-2.0,-100.00,SE,130,6.0,8.0,68,0.00,,,0.00,,2013-02-02 23:11:00,
2013-02-02 17:21:00,6.0,0.0,-100.00,SSE,165,6.0,8.0,71,0.00,,,0.00,,2013-02-02 23:21:00,
2013-02-02 17:32:00,6.0,0.0,-100.00,South,175,4.0,7.0,74,0.00,,,0.00,,2013-02-02 23:32:00,
2013-02-02 17:42:00,6.0,0.0,-100.00,South,170,4.0,7.0,77,0.00,,,0.00,,2013-02-02 23:42:00,
2013-02-02 17:52:00,6.0,0.0,-100.00,South,170,5.0,7.0,78,0.00,,,0.00,,2013-02-02 23:52:00,
2013-02-02 18:02:00,6.0,1.0,-100.00,SSE,160,4.0,7.0,80,0.00,,,0.00,,2013-02-03 00:02:00,
2013-02-02 18:11:00,6.0,1.0,-100.00,South,170,4.0,6.0,81,0.00,,,0.00,,2013-02-03 00:11:00,
2013-02-02 18:21:00,6.0,1.0,-100.00,SSE,165,4.0,6.0,83,0.00,,,0.00,,2013-02-03 00:21:00,
2013-02-02 18:31:00,6.0,1.0,-100.00,SE,145,3.0,6.0,84,0.00,,,0.00,,2013-02-03 00:31:00,
2013-02-02 18:41:00,6.0,1.0,-100.00,SSE,165,3.0,6.0,84,0.00,,,0.00,,2013-02-03 00:41:00,
2013-02-02 18:51:00,6.0,1.0,-100.00,South,185,2.0,5.0,85,0.00,,,0.00,,2013-02-03 00:51:00,
2013-02-02 19:02:00,6.0,3.0,-100.00,ENE,60,1.0,4.0,86,0.00,,,0.00,,2013-02-03 01:02:00,
2013-02-02 19:11:00,6.0,3.0,-100.00,SE,140,0.0,3.0,86,0.00,,,0.00,,2013-02-03 01:11:00,
2013-02-02 19:21:00,6.0,3.0,-100.00,SE,145,4.0,6.0,86,0.00,,,0.00,,2013-02-03 01:21:00,
2013-02-02 19:32:00,6.0,3.0,-100.00,SSE,155,3.0,6.0,86,0.00,,,0.00,,2013-02-03 01:32:00,
2013-02-02 19:41:00,6.0,3.0,-100.00,SE,135,1.0,4.0,87,0.00,,,0.00,,2013-02-03 01:41:00,
2013-02-02 19:52:00,6.0,3.0,-100.00,SE,140,3.0,4.0,87,0.00,,,0.00,,2013-02-03 01:52:00,
2013-02-02 20:01:00,6.0,3.0,-100.00,SE,145,4.0,6.0,87,0.00,,,0.00,,2013-02-03 02:01:00,
2013-02-02 20:11:00,6.0,3.0,-100.00,SE,145,3.0,5.0,87,0.00,,,0.00,,2013-02-03 02:11:00,
2013-02-02 20:21:00,7.0,3.0,-100.00,East,100,1.0,4.0,87,0.00,,,0.00,,2013-02-03 02:21:00,
2013-02-02 20:32:00,7.0,3.0,-100.00,SSE,160,1.0,5.0,88,0.00,,,0.00,,2013-02-03 02:32:00,
2013-02-02 20:41:00,7.0,3.0,-100.00,SE,135,2.0,4.0,88,0.00,,,0.00,,2013-02-03 02:41:00,
2013-02-02 20:52:00,7.0,3.0,-100.00,SE,145,2.0,4.0,88,0.00,,,0.00,,2013-02-03 02:52:00,
2013-02-02 21:02:00,7.0,3.0,-100.00,SE,140,1.0,2.0,88,0.00,,,0.00,,2013-02-03 03:02:00,
2013-02-02 21:11:00,7.0,3.0,-100.00,SSE,150,1.0,2.0,88,0.00,,,0.00,,2013-02-03 03:11:00,
2013-02-02 21:21:00,7.0,3.0,-100.00,NE,40,0.0,1.0,88,0.00,,,0.00,,2013-02-03 03:21:00,
2013-02-02 21:31:00,7.0,5.0,-100.00,NE,55,0.0,2.0,88,0.00,,,0.00,,2013-02-03 03:31:00,
2013-02-02 21:41:00,7.0,5.0,-100.00,NW,320,0.0,1.0,88,0.00,,,0.00,,2013-02-03 03:41:00,
2013-02-02 21:51:00,7.0,5.0,-100.00,WNW,300,1.0,4.0,88,0.00,,,0.00,,2013-02-03 03:51:00,
2013-02-02 22:01:00,7.0,5.0,-100.00,NNW,345,2.0,3.0,88,0.00,,,0.00,,2013-02-03 04:01:00,
2013-02-02 22:11:00,7.0,5.0,-100.00,NW,320,1.0,3.0,88,0.00,,,0.00,,2013-02-03 04:11:00,
2013-02-02 22:21:00,7.0,5.0,-100.00,NW,305,2.0,3.0,88,0.00,,,0.00,,2013-02-03 04:21:00,
2013-02-02 22:31:00,7.0,5.0,-100.00,WNW,290,2.0,4.0,88,0.00,,,0.00,,2013-02-03 04:31:00,
2013-02-02 22:42:00,7.0,5.0,-100.00,WNW,295,4.0,4.0,88,0.00,,,0.00,,2013-02-03 04:42:00,
2013-02-02 22:51:00,7.0,5.0,-100.00,West,280,4.0,6.0,88,0.00,,,0.00,,2013-02-03 04:51:00,
2013-02-02 23:03:00,7.0,3.0,-100.00,WNW,295,4.0,6.0,88,0.00,,,0.00,,2013-02-03 05:03:00,
2013-02-02 23:11:00,7.0,3.0,-100.00,WNW,290,5.0,6.0,88,0.00,,,0.00,,2013-02-03 05:11:00,
2013-02-02 23:22:00,7.0,3.0,-100.00,WNW,295,6.0,7.0,88,0.00,,,0.00,,2013-02-03 05:22:00,
2013-02-02 23:32:00,7.0,3.0,-100.00,WNW,295,6.0,9.0,88,0.00,,,0.00,,2013-02-03 05:32:00,
2013-02-02 23:41:00,7.0,3.0,-100.00,WNW,295,6.0,7.0,88,0.00,,,0.00,,2013-02-03 05:41:00,
2013-02-02 23:52:00,7.0,3.0,-100.00,WNW,295,6.0,7.0,88,0.00,,,0.00,,2013-02-03 05:52:00,